| time (UTC) | temp F | wind direction | speed knots | gust knots | rain 1hr in | rain 24hr in | rain mn in | humidity % | barometer mb |
| 20260503220519 | 52 | 90 | 7.0 | 12.2 | 0.00 | 0.00 | 0.00 | 75 | 1020.2 |
| 20260503220009 | 52 | 113 | 7.0 | 11.3 | 0.00 | 0.00 | 0.00 | 76 | 1020.1 |
| 20260503215519 | 52 | 90 | 6.1 | 9.6 | 0.00 | 0.00 | 0.00 | 76 | 1020.2 |
| 20260503215039 | 52 | 90 | 5.2 | 8.7 | 0.00 | 0.00 | 0.00 | 76 | 1020.3 |
| 20260503214519 | 52 | 90 | 6.1 | 9.6 | 0.00 | 0.00 | 0.00 | 76 | 1020.2 |
| 20260503214018 | 52 | 90 | 5.2 | 8.7 | 0.00 | 0.00 | 0.00 | 76 | 1020.2 |
| 20260503213519 | 52 | 90 | 5.2 | 7.8 | 0.00 | 0.00 | 0.00 | 75 | 1020.3 |
| 20260503213018 | 52 | 90 | 5.2 | 8.7 | 0.00 | 0.00 | 0.00 | 75 | 1020.1 |
| 20260503212519 | 52 | 90 | 5.2 | 8.7 | 0.00 | 0.00 | 0.00 | 75 | 1020.3 |
| 20260503212039 | 52 | 90 | 5.2 | 9.6 | 0.00 | 0.00 | 0.00 | 75 | 1020.3 |
| 20260503211519 | 52 | 113 | 6.1 | 8.7 | 0.00 | 0.00 | 0.00 | 75 | 1020.2 |
| 20260503211018 | 53 | 113 | 6.1 | 9.6 | 0.00 | 0.00 | 0.00 | 75 | 1020.3 |
| 20260503210519 | 53 | 113 | 6.1 | 9.6 | 0.00 | 0.00 | 0.00 | 75 | 1020.3 |
| 20260503210019 | 53 | 113 | 6.1 | 10.4 | 0.00 | 0.00 | 0.00 | 75 | 1020.3 |
| 20260503205518 | 53 | 113 | 7.0 | 10.4 | 0.00 | 0.00 | 0.00 | 75 | 1020.3 |
| 20260503205018 | 53 | 113 | 5.2 | 11.3 | 0.00 | 0.00 | 0.00 | 75 | 1020.2 |
| 20260503204518 | 52 | 113 | 5.2 | 8.7 | 0.00 | 0.00 | 0.00 | 76 | 1020.2 |
| 20260503204019 | 52 | 135 | 2.6 | 7.0 | 0.00 | 0.00 | 0.00 | 76 | 1020.1 |
| 20260503203009 | 53 | 113 | 3.5 | 7.8 | 0.00 | 0.00 | 0.00 | 74 | 1020.2 |
| 20260503202518 | 53 | 113 | 4.3 | 8.7 | 0.00 | 0.00 | 0.00 | 73 | 1020.2 |
| 20260503202018 | 54 | 113 | 5.2 | 8.7 | 0.00 | 0.00 | 0.00 | 73 | 1020.2 |
| 20260503201519 | 54 | 113 | 5.2 | 9.6 | 0.00 | 0.00 | 0.00 | 73 | 1020.2 |
| 20260503201019 | 54 | 113 | 6.1 | 9.6 | 0.00 | 0.00 | 0.00 | 73 | 1020.2 |
| 20260503200518 | 54 | 113 | 5.2 | 7.8 | 0.00 | 0.00 | 0.00 | 73 | 1020.1 |
| 20260503200015 | 54 | 113 | 6.1 | 10.4 | 0.00 | 0.00 | 0.00 | 72 | 1020.3 |
| 20260503195519 | 54 | 113 | 4.3 | 7.8 | 0.00 | 0.00 | 0.00 | 72 | 1020.1 |
| 20260503195018 | 54 | 113 | 5.2 | 9.6 | 0.00 | 0.00 | 0.00 | 72 | 1020.2 |
| 20260503194519 | 54 | 113 | 5.2 | 11.3 | 0.00 | 0.00 | 0.00 | 73 | 1020.1 |
| 20260503194019 | 54 | 113 | 6.1 | 10.4 | 0.00 | 0.00 | 0.00 | 73 | 1020.2 |
| 20260503193518 | 54 | 113 | 5.2 | 8.7 | 0.00 | 0.00 | 0.00 | 73 | 1020.1 |
| 20260503193017 | 54 | 113 | 4.3 | 10.4 | 0.00 | 0.00 | 0.00 | 73 | 1020.2 |
| 20260503192539 | 54 | 113 | 4.3 | 8.7 | 0.00 | 0.00 | 0.00 | 74 | 1020.2 |
| 20260503192039 | 54 | 113 | 4.3 | 7.8 | 0.00 | 0.00 | 0.00 | 74 | 1020.2 |
| 20260503191600 | 54 | 113 | 4.3 | 7.0 | 0.00 | 0.00 | 0.00 | 74 | 1020.2 |
| 20260503191018 | 53 | 113 | 4.3 | 8.7 | 0.00 | 0.00 | 0.00 | 75 | 1020.1 |
| 20260503190518 | 53 | 113 | 3.5 | 7.0 | 0.00 | 0.00 | 0.00 | 76 | 1020.2 |
| 20260503190017 | 52 | 113 | 3.5 | 7.8 | 0.00 | 0.00 | 0.00 | 78 | 1020.1 |
| 20260503185519 | 52 | 113 | 2.6 | 6.1 | 0.00 | 0.00 | 0.00 | 79 | 1020.0 |
| 20260503185019 | 51 | 135 | 2.6 | 5.2 | 0.00 | 0.00 | 0.00 | 80 | 1020.0 |
| 20260503184600 | 51 | 135 | 2.6 | 4.3 | 0.00 | 0.00 | 0.00 | 80 | 1020.1 |
| 20260503184018 | 51 | 158 | 1.7 | 4.3 | 0.00 | 0.00 | 0.00 | 78 | 1020.2 |
| 20260503183539 | 52 | 158 | 1.7 | 4.3 | 0.00 | 0.00 | 0.00 | 77 | 1020.1 |
| 20260503183007 | 52 | 158 | 3.5 | 7.0 | 0.00 | 0.00 | 0.00 | 77 | 1020.2 |
| 20260503182518 | 52 | 135 | 3.5 | 6.1 | 0.00 | 0.00 | 0.00 | 77 | 1020.1 |
| 20260503182018 | 52 | 135 | 3.5 | 7.8 | 0.00 | 0.00 | 0.00 | 77 | 1020.1 |
| 20260503181518 | 52 | 135 | 3.5 | 6.1 | 0.00 | 0.00 | 0.00 | 77 | 1020.2 |
| 20260503181018 | 52 | 135 | 2.6 | 6.1 | 0.00 | 0.00 | 0.00 | 78 | 1020.1 |
| 20260503180518 | 52 | 135 | 2.6 | 4.3 | 0.00 | 0.00 | 0.00 | 78 | 1020.2 |
| 20260503180012 | 52 | 135 | 3.5 | 6.1 | 0.00 | 0.00 | 0.00 | 77 | 1020.2 |
| 20260503175518 | 52 | 158 | 3.5 | 6.1 | 0.00 | 0.00 | 0.00 | 77 | 1020.3 |
| 20260503175018 | 52 | 135 | 4.3 | 7.0 | 0.00 | 0.00 | 0.00 | 77 | 1020.2 |
| 20260503174623 | 53 | 158 | 4.3 | 7.0 | 0.00 | 0.00 | 0.00 | 76 | 1020.4 |
| 20260503174018 | 53 | 158 | 4.3 | 7.0 | 0.00 | 0.00 | 0.00 | 76 | 1020.4 |
| 20260503173518 | 53 | 135 | 4.3 | 7.0 | 0.00 | 0.00 | 0.00 | 76 | 1020.4 |
| 20260503173007 | 53 | 135 | 4.3 | 7.0 | 0.00 | 0.00 | 0.00 | 76 | 1020.5 |
| 20260503172539 | 53 | 158 | 3.5 | 7.0 | 0.00 | 0.00 | 0.00 | 75 | 1020.5 |
| 20260503172018 | 53 | 135 | 3.5 | 7.0 | 0.00 | 0.00 | 0.00 | 75 | 1020.5 |
| 20260503171518 | 53 | 135 | 4.3 | 7.0 | 0.00 | 0.00 | 0.00 | 75 | 1020.5 |
| 20260503171018 | 53 | 158 | 4.3 | 7.0 | 0.00 | 0.00 | 0.00 | 75 | 1020.6 |
| 20260503170518 | 53 | 158 | 4.3 | 7.0 | 0.00 | 0.00 | 0.00 | 75 | 1020.7 |
| 20260503150519 | 53 | 180 | 1.7 | 3.5 | 0.00 | 0.00 | 0.00 | 73 | 1020.5 |
| 20260503131019 | 58 | 135 | 4.3 | 7.8 | 0.00 | 0.00 | 0.00 | 62 | 1019.6 |
| 20260503130518 | 58 | 135 | 3.5 | 7.0 | 0.00 | 0.00 | 0.00 | 62 | 1019.5 |
| 20260503110518 | 61 | 135 | 2.6 | 4.3 | 0.00 | 0.00 | 0.00 | 53 | 1018.6 |
| 20260503081518 | 70 | 135 | 5.2 | 10.4 | 0.00 | 0.00 | 0.00 | 38 | 1017.7 |
| 20260503081018 | 70 | 135 | 6.1 | 13.9 | 0.00 | 0.00 | 0.00 | 38 | 1017.8 |
| 20260503080518 | 70 | 113 | 6.1 | 13.0 | 0.00 | 0.00 | 0.00 | 39 | 1017.8 |
| 20260503072518 | 70 | 113 | 7.8 | 12.2 | 0.00 | 0.00 | 0.00 | 38 | 1017.9 |
| 20260503072018 | 70 | 113 | 7.0 | 12.2 | 0.00 | 0.00 | 0.00 | 38 | 1017.9 |
| 20260503071518 | 70 | 113 | 6.1 | 12.2 | 0.00 | 0.00 | 0.00 | 38 | 1017.9 |
| 20260503071018 | 70 | 113 | 6.1 | 10.4 | 0.00 | 0.00 | 0.00 | 38 | 1017.9 |
| 20260503070518 | 70 | 113 | 6.1 | 12.2 | 0.00 | 0.00 | 0.00 | 38 | 1018.0 |
| 20260503055018 | 69 | 113 | 7.0 | 11.3 | 0.00 | 0.00 | 0.00 | 37 | 1018.4 |
| 20260503054539 | 69 | 113 | 5.2 | 8.7 | 0.00 | 0.00 | 0.00 | 39 | 1018.4 |
| 20260503054017 | 69 | 113 | 7.0 | 13.0 | 0.00 | 0.00 | 0.00 | 39 | 1018.5 |
| 20260503053517 | 69 | 113 | 6.1 | 12.2 | 0.00 | 0.00 | 0.00 | 39 | 1018.5 |
| 20260503053008 | 69 | 113 | 7.0 | 12.2 | 0.00 | 0.00 | 0.00 | 39 | 1018.5 |
| 20260503052517 | 69 | 113 | 7.0 | 12.2 | 0.00 | 0.00 | 0.00 | 38 | 1018.6 |
| 20260503052018 | 69 | 135 | 5.2 | 9.6 | 0.00 | 0.00 | 0.00 | 38 | 1018.7 |
| 20260503051518 | 69 | 135 | 7.0 | 16.5 | 0.00 | 0.00 | 0.00 | 40 | 1018.7 |
| 20260503051018 | 69 | 113 | 6.1 | 10.4 | 0.00 | 0.00 | 0.00 | 40 | 1018.7 |
| 20260503050518 | 68 | 113 | 7.8 | 12.2 | 0.00 | 0.00 | 0.00 | 40 | 1018.6 |
| 20260503050028 | 68 | 113 | 7.0 | 11.3 | 0.00 | 0.00 | 0.00 | 40 | 1018.7 |
| 20260503045517 | 68 | 113 | 7.0 | 13.0 | 0.00 | 0.00 | 0.00 | 40 | 1018.8 |
| 20260503045017 | 68 | 90 | 7.8 | 14.8 | 0.00 | 0.00 | 0.00 | 40 | 1018.9 |
| 20260503044518 | 68 | 113 | 8.7 | 15.6 | 0.00 | 0.00 | 0.00 | 40 | 1018.9 |
| 20260503044038 | 68 | 90 | 7.8 | 13.9 | 0.00 | 0.00 | 0.00 | 41 | 1019.1 |
| 20260503043518 | 67 | 90 | 7.8 | 12.2 | 0.00 | 0.00 | 0.00 | 41 | 1019.0 |
| 20260503043009 | 67 | 90 | 7.8 | 14.8 | 0.00 | 0.00 | 0.00 | 41 | 1019.3 |
| 20260503042518 | 67 | 113 | 7.0 | 11.3 | 0.00 | 0.00 | 0.00 | 43 | 1019.4 |
| 20260503042017 | 67 | 113 | 7.8 | 12.2 | 0.00 | 0.00 | 0.00 | 42 | 1019.5 |
| 20260503041518 | 67 | 90 | 7.8 | 15.6 | 0.00 | 0.00 | 0.00 | 41 | 1019.5 |
| 20260503041017 | 67 | 90 | 7.8 | 13.0 | 0.00 | 0.00 | 0.00 | 42 | 1019.6 |
| 20260503040518 | 67 | 90 | 8.7 | 12.2 | 0.00 | 0.00 | 0.00 | 41 | 1019.6 |
| 20260503040007 | 66 | 90 | 7.8 | 13.0 | 0.00 | 0.00 | 0.00 | 43 | 1019.6 |
| 20260503035538 | 66 | 113 | 7.0 | 13.0 | 0.00 | 0.00 | 0.00 | 43 | 1019.7 |
| 20260503035017 | 66 | 90 | 9.6 | 13.0 | 0.00 | 0.00 | 0.00 | 43 | 1019.7 |
| 20260503034518 | 65 | 113 | 7.8 | 12.2 | 0.00 | 0.00 | 0.00 | 43 | 1019.8 |
| 20260503034017 | 65 | 113 | 7.8 | 13.9 | 0.00 | 0.00 | 0.00 | 43 | 1019.8 |
| 20260503033517 | 65 | 90 | 9.6 | 15.6 | 0.00 | 0.00 | 0.00 | 43 | 1020.0 |
| 20260503033029 | 65 | 113 | 7.0 | 13.9 | 0.00 | 0.00 | 0.00 | 44 | 1019.9 |
| 20260503032517 | 65 | 113 | 7.0 | 13.9 | 0.00 | 0.00 | 0.00 | 44 | 1020.2 |
| 20260503032017 | 64 | 113 | 7.8 | 12.2 | 0.00 | 0.00 | 0.00 | 45 | 1020.1 |
| 20260503031517 | 65 | 90 | 9.6 | 14.8 | 0.00 | 0.00 | 0.00 | 44 | 1020.2 |
| 20260503031017 | 64 | 113 | 9.6 | 13.9 | 0.00 | 0.00 | 0.00 | 45 | 1020.2 |
| 20260503030517 | 64 | 90 | 10.4 | 14.8 | 0.00 | 0.00 | 0.00 | 45 | 1020.3 |
| 20260503030005 | 63 | 90 | 10.4 | 15.6 | 0.00 | 0.00 | 0.00 | 45 | 1020.5 |
| 20260503025517 | 64 | 90 | 8.7 | 13.9 | 0.00 | 0.00 | 0.00 | 45 | 1020.7 |
| 20260503025018 | 64 | 90 | 7.8 | 13.0 | 0.00 | 0.00 | 0.00 | 47 | 1020.6 |
| 20260503024517 | 63 | 113 | 8.7 | 13.9 | 0.00 | 0.00 | 0.00 | 48 | 1020.7 |
| 20260503024017 | 62 | 113 | 8.7 | 13.9 | 0.00 | 0.00 | 0.00 | 49 | 1020.6 |
| 20260503023538 | 62 | 113 | 10.4 | 16.5 | 0.00 | 0.00 | 0.00 | 48 | 1020.8 |
| 20260503023014 | 63 | 90 | 10.4 | 15.6 | 0.00 | 0.00 | 0.00 | 47 | 1020.9 |
| 20260503022538 | 63 | 90 | 8.7 | 14.8 | 0.00 | 0.00 | 0.00 | 48 | 1020.9 |
| 20260503022017 | 62 | 90 | 11.3 | 17.4 | 0.00 | 0.00 | 0.00 | 49 | 1021.0 |
| 20260503021518 | 63 | 90 | 10.4 | 15.6 | 0.00 | 0.00 | 0.00 | 50 | 1021.1 |
| 20260503021017 | 62 | 90 | 10.4 | 15.6 | 0.00 | 0.00 | 0.00 | 50 | 1021.1 |
| 20260503020518 | 62 | 90 | 11.3 | 20.0 | 0.00 | 0.00 | 0.00 | 52 | 1021.2 |
| 20260503020011 | 61 | 90 | 11.3 | 17.4 | 0.00 | 0.00 | 0.00 | 53 | 1021.1 |
| 20260503015517 | 61 | 90 | 10.4 | 16.5 | 0.00 | 0.00 | 0.00 | 53 | 1021.1 |
| 20260503015017 | 60 | 90 | 12.2 | 17.4 | 0.00 | 0.00 | 0.00 | 55 | 1021.1 |
| 20260503014517 | 60 | 90 | 12.2 | 17.4 | 0.00 | 0.00 | 0.00 | 56 | 1021.0 |
| 20260503014017 | 59 | 90 | 10.4 | 16.5 | 0.00 | 0.00 | 0.00 | 58 | 1021.1 |
| 20260503013517 | 59 | 90 | 10.4 | 14.8 | 0.00 | 0.00 | 0.00 | 57 | 1021.1 |
| 20260503013006 | 59 | 90 | 10.4 | 18.2 | 0.00 | 0.00 | 0.00 | 59 | 1021.0 |
| 20260503012517 | 58 | 90 | 11.3 | 18.2 | 0.00 | 0.00 | 0.00 | 59 | 1021.0 |
| 20260503012019 | 58 | 90 | 12.2 | 17.4 | 0.00 | 0.00 | 0.00 | 60 | 1021.1 |
| 20260503011538 | 57 | 113 | 10.4 | 16.5 | 0.00 | 0.00 | 0.00 | 62 | 1021.0 |
| 20260503011019 | 57 | 113 | 9.6 | 17.4 | 0.00 | 0.00 | 0.00 | 63 | 1021.0 |
| 20260503010519 | 56 | 113 | 8.7 | 13.9 | 0.00 | 0.00 | 0.00 | 65 | 1020.9 |
| 20260503010009 | 55 | 113 | 6.1 | 11.3 | 0.00 | 0.00 | 0.00 | 68 | 1020.9 |
| 20260503005519 | 55 | 113 | 6.1 | 11.3 | 0.00 | 0.00 | 0.00 | 69 | 1021.0 |
| 20260503005019 | 54 | 113 | 5.2 | 11.3 | 0.00 | 0.00 | 0.00 | 71 | 1020.8 |
| 20260503004519 | 53 | 135 | 5.2 | 11.3 | 0.00 | 0.00 | 0.00 | 72 | 1020.8 |
| 20260503004019 | 53 | 135 | 6.1 | 11.3 | 0.00 | 0.00 | 0.00 | 73 | 1020.8 |
| 20260503003519 | 52 | 135 | 4.3 | 7.8 | 0.00 | 0.00 | 0.00 | 74 | 1020.8 |
| 20260503003007 | 52 | 135 | 3.5 | 7.0 | 0.00 | 0.00 | 0.00 | 74 | 1020.8 |
| 20260503002519 | 51 | 135 | 4.3 | 7.8 | 0.00 | 0.00 | 0.00 | 75 | 1020.8 |
| 20260503002040 | 51 | 135 | 4.3 | 7.8 | 0.00 | 0.00 | 0.00 | 76 | 1020.8 |
| 20260503001519 | 50 | 135 | 3.5 | 7.0 | 0.00 | 0.00 | 0.00 | 77 | 1020.7 |
| 20260503001019 | 50 | 135 | 3.5 | 7.0 | 0.00 | 0.00 | 0.00 | 78 | 1020.6 |
| 20260503000540 | 49 | 135 | 3.5 | 7.0 | 0.00 | 0.00 | 0.00 | 79 | 1020.7 |
| 20260503000013 | 49 | 158 | 3.5 | 7.0 | 0.00 | 0.00 | 0.00 | 79 | 1020.4 |
| 20260502235519 | 48 | 158 | 4.3 | 7.8 | 0.00 | 0.00 | 0.00 | 79 | 1020.5 |
| 20260502235019 | 48 | 135 | 3.5 | 6.1 | 0.00 | 0.00 | 0.00 | 80 | 1020.5 |
| 20260502234601 | 48 | 135 | 3.5 | 7.0 | 0.00 | 0.00 | 0.00 | 80 | 1020.3 |
| 20260502234019 | 47 | 135 | 3.5 | 6.1 | 0.00 | 0.00 | 0.00 | 80 | 1020.3 |
| 20260502233519 | 47 | 135 | 2.6 | 4.3 | 0.00 | 0.00 | 0.00 | 80 | 1020.4 |
| 20260502233008 | 47 | 135 | 4.3 | 7.8 | 0.00 | 0.00 | 0.00 | 80 | 1020.2 |
| 20260502232519 | 47 | 158 | 4.3 | 7.8 | 0.00 | 0.00 | 0.00 | 80 | 1020.2 |
| 20260502232040 | 47 | 158 | 5.2 | 7.8 | 0.00 | 0.00 | 0.00 | 80 | 1020.2 |
| 20260502231621 | 47 | 158 | 4.3 | 7.0 | 0.00 | 0.00 | 0.00 | 80 | 1020.1 |
| 20260502231039 | 47 | 135 | 4.3 | 7.0 | 0.00 | 0.00 | 0.00 | 81 | 1020.0 |
| 20260502230519 | 46 | 135 | 3.5 | 7.0 | 0.00 | 0.00 | 0.00 | 81 | 1020.0 |
| 20260502230008 | 46 | 135 | 4.3 | 7.8 | 0.00 | 0.00 | 0.00 | 81 | 1019.9 |
| 20260502225519 | 46 | 135 | 3.5 | 7.0 | 0.00 | 0.00 | 0.00 | 81 | 1019.9 |
| 20260502225019 | 46 | 135 | 5.2 | 7.8 | 0.00 | 0.00 | 0.00 | 81 | 1019.8 |
| 20260502224519 | 46 | 135 | 4.3 | 7.8 | 0.00 | 0.00 | 0.00 | 81 | 1019.8 |
| 20260502224019 | 46 | 135 | 3.5 | 6.1 | 0.00 | 0.00 | 0.00 | 81 | 1019.8 |
| 20260502223519 | 46 | 135 | 2.6 | 5.2 | 0.00 | 0.00 | 0.00 | 82 | 1019.9 |
| 20260502223007 | 46 | 135 | 2.6 | 6.1 | 0.00 | 0.00 | 0.00 | 82 | 1019.8 |
| 20260502222518 | 46 | 135 | 2.6 | 4.3 | 0.00 | 0.00 | 0.00 | 82 | 1019.7 |
| 20260502222040 | 46 | 158 | 4.3 | 7.0 | 0.00 | 0.00 | 0.00 | 81 | 1019.7 |
| 20260502221519 | 46 | 158 | 4.3 | 7.0 | 0.00 | 0.00 | 0.00 | 81 | 1019.8 |
| 20260502221019 | 46 | 158 | 3.5 | 7.0 | 0.00 | 0.00 | 0.00 | 80 | 1019.8 |